Location: Gradaro
(45.0833°N, 10.8833°E)
Time: 03:02:35
(UTC+00:00)

Cosmos 2327 Rocket - Visible Passes

Search period start: 14 April 2021 00:00
Search period end: 24 April 2021 00:00
Orbit: 943 x 1009 km, 83.0° (Epoch: 12 April)

Date Brightness Start Highest point End Pass type
(mag) Time Alt. Az. Time Alt. Az. Time Alt. Az.
14 Apr 4.7 00:36:25 10° N 00:41:34 63° NNW 00:41:34 63° NNW visible
14 Apr 6.4 02:24:29 10° NW 02:26:14 12° WNW 02:26:14 12° WNW visible
14 Apr 5.8 23:17:06 10° N 23:22:15 30° ENE 23:22:15 30° ENE visible
15 Apr 5.2 01:02:11 10° NNW 01:06:55 42° WNW 01:06:55 42° WNW visible
15 Apr 5.1 23:42:16 10° N 23:47:37 49° NE 23:47:37 49° NE visible
16 Apr 5.8 01:28:19 10° NNW 01:32:16 25° WNW 01:32:16 25° WNW visible
16 Apr 6.5 22:24:04 10° NNE 22:27:42 16° ENE 22:28:19 15° ENE visible
17 Apr 4.7 00:07:43 10° N 00:13:00 66° N 00:13:00 66° N visible
17 Apr 6.3 01:55:11 10° NW 01:57:40 15° WNW 01:57:40 15° WNW visible
17 Apr 5.9 22:48:35 10° NNE 22:53:42 27° ENE 22:53:42 27° ENE visible
18 Apr 5.0 00:33:26 10° NNW 00:38:23 47° WNW 00:38:23 47° WNW visible
18 Apr 5.3 23:13:40 10° N 23:19:06 44° ENE 23:19:06 44° ENE visible
19 Apr 5.7 00:59:28 10° NNW 01:03:47 29° WNW 01:03:47 29° WNW visible
19 Apr 6.6 21:55:52 10° NNE 21:58:54 14° ENE 21:59:51 13° ENE visible
19 Apr 4.7 23:39:04 10° N 23:44:31 67° NNE 23:44:31 67° NNE visible
20 Apr 6.2 01:26:04 10° NW 01:29:11 17° WNW 01:29:11 17° WNW visible
20 Apr 6.0 22:20:06 10° NNE 22:25:03 24° ENE 22:25:16 24° ENE visible
21 Apr 4.9 00:04:43 10° NNW 00:09:56 55° NW 00:09:56 55° NW visible
21 Apr 5.4 22:45:06 10° N 22:50:41 40° ENE 22:50:41 40° ENE visible
22 Apr 5.5 00:30:39 10° NNW 00:35:22 34° WNW 00:35:22 34° WNW visible
22 Apr 6.7 21:27:51 10° NE 21:30:05 12° ENE 21:31:27 11° ENE visible
22 Apr 4.7 23:10:26 10° N 23:16:08 65° NE 23:16:08 65° NE visible
23 Apr 6.1 00:57:03 10° NW 01:00:48 20° WNW 01:00:48 20° WNW visible
23 Apr 6.1 21:51:39 10° NNE 21:56:17 21° ENE 21:56:54 21° ENE visible
23 Apr 4.7 23:36:01 10° NNW 23:41:35 65° NW 23:41:35 65° NW visible
